     2              OBSERVATION DATA    GPS                 RINEX VERSION / TYPE
teqc 2000Feb29 Duncan Agnew 20000707 21:02:29UTC            PGM / RUN BY / DATE
                                                            COMMENT
L2: 1 -> 1; 5 -> 5; 60 -> 9                                 COMMENT
L2: 1 -> 1; 5 -> 5; 60 -> 9                                 COMMENT
L2: 1 -> 1; 5 -> 5; 60 -> 9                                 COMMENT
L2: 1 -> 1; 5 -> 5; 60 -> 9                                 COMMENT
L2: 1 -> 1; 5 -> 5; 60 -> 9                                 COMMENT
Original Marker Name: 6410                                  COMMENT
Campaign Name: USMC MCAGCC                                  COMMENT
4-Character Station Name: ELEP                              COMMENT
6-Character Antenna Code: TRMSST                            COMMENT
Vertical Measurement Point: BGP                             COMMENT
Vertical Offset to Rinex Ref. Point: 0.0597                 COMMENT
Radial Measurement Point: NGP                               COMMENT
Radial Offset to Rinex Ref. Point: 0.2334                   COMMENT
Antenna Height from Field Measurement: 1.4010 m             COMMENT
Additional Antenna Identification Info.:                    COMMENT
Model 14532.00                                              COMMENT
Original XYZ: -2310906.7534 -4726303.8382 3594644.0833      COMMENT
New XYZ position is based on association with SCEC monument COMMENT
E1F2K1L4+0011. Position of that monument is believed to be  COMMENT
valid to within 1 m horizontally; vertical accuracy         COMMENT
should be no worse than 3-times this value.                 COMMENT
                                                            COMMENT
Revised Rinex header created by UCSD GPS archive for        COMMENT
GSAC on 10-Aug-2000 (2000:223) 22:28:11 GMT                 COMMENT
For assistance contact dagnew@ucsd.edu                      COMMENT
or anderson@python.ucsd.edu                                 COMMENT
                                                            COMMENT
ELEPHANT                                                    MARKER NAME
____0001                                                    MARKER NUMBER
-Unknown- 11TH ARTILLERY US MARINE CORPS                    OBSERVER / AGENCY
16410 TRIMBLE MSGR NP 7.57; SP 3.53                         REC # / TYPE / VERS
S/N UNKNOWN TR 4000SST L1/L2 GEO                            ANT # / TYPE
 -2310903.7150 -4726301.6682  3594640.6121                  APPROX POSITION XYZ
        1.3217        0.0000        0.0000                  ANTENNA: DELTA H/E/N
     1     1     0                                          WAVELENGTH FACT L1/2
     6    L1    L2    P1    P2    S1    S2                  # / TYPES OF OBSERV
     0                                                      INTERVAL
  1999     3     2    21     1   15.000000                  TIME OF FIRST OBS
  1999     3     2    21    30   45.000000                  TIME OF LAST OBS
                                                            END OF HEADER
 99  3  2 21  1 15.0000000  0  6G 2G 7G 4G24G 9G26
  14223568.02316  11083294.00016  22212068.117    22212076.313          15.750
        14.000
  10617712.33216   8273543.96416  21139267.391    21139274.445          19.250
        19.750
  -8030306.39416  -6257355.19016  21358288.273    21358295.441          18.250
        19.250
   -152444.16311   -118787.36114  24013193.813    24013208.195           3.000
         3.750
  -7047510.99116  -5482262.06616  22066031.469    22066038.418          18.000
        16.250
  14936763.32715  11641908.47915  24242932.727    24242943.418           7.500
         7.250
 99  3  2 21  1 30.0000000  0  6G 2G 7G 4G24G 9G26
  14263909.656 6  11114729.001 6  22219745.156    22219753.262          15.750
        14.000
  10659055.190 6   8305759.165 6  21147134.789    21147141.699          19.250
        19.750
  -8046916.194 6  -6270297.862 6  21355127.406    21355134.441          18.250
        19.500
   -189260.182 1   -147474.968 4  24006187.867    24006202.023           3.000
         3.750
  -7059871.869 6  -5491893.902 6  22063679.273    22063686.289          17.750
        16.250
  14988613.184 5  11682310.873 5  24252799.570    24252810.629           7.750
         7.250
 99  3  2 21  1 45.0000000  0  6G 2G 7G 4G24G 9G26
  14304310.223 6  11146209.938 6  22227433.156    22227441.332          15.750
        14.000
  10700455.713 6   8338019.300 6  21155012.875    21155019.922          19.500
        20.000
  -8063405.211 6  -6283146.419 6  21351989.555    21351996.652          18.250
        19.500
   -226053.839 1   -176145.124 4  23999186.234    23999201.125           3.000
         3.750
  -7072129.916 6  -5501445.609 6  22061346.586    22061353.590          17.750
        16.250
  15040500.185 5  11722742.218 5  24262673.281    24262684.313           7.750
         7.250
 99  3  2 21  2  0.0000000  0  6G 2G 7G 4G24G 9G26
  14344770.541 6  11177737.437 6  22235132.352    22235140.633          15.750
        14.250
  10741914.377 6   8370324.745 6  21162902.164    21162909.305          19.500
        20.000
  -8079771.934 6  -6295899.674 6  21348875.148    21348882.262          18.250
        19.500
   -262823.855 1   -204796.891 4  23992188.977    23992203.055           3.000
         4.000
  -7084281.162 6  -5510914.090 6  22059034.125    22059041.156          17.500
        16.250
  15092426.775 5  11763204.413 5  24272554.789    24272565.543           8.000
         7.250
 99  3  2 21  2 15.0000000  0  6G 2G 7G 4G24G 9G26
  14385287.966 6  11209309.420 6  22242842.414    22242850.957          15.500
        14.250
  10783427.942 6   8402672.968 6  21170801.898    21170809.109          19.000
        19.750
  -8096019.105 6  -6308559.764 6  21345783.320    21345790.660          17.500
        19.750
   -299574.577 1   -233433.610 4  23985194.813    23985210.121           3.250
         4.000
  -7096327.419 6  -5520300.769 6  22056741.531    22056748.730          17.750
        16.250
  15144387.224 5  11803693.006 5  24282442.508    24282453.863           7.750
         7.750
 99  3  2 21  2 30.0000000  0  6G 2G 7G 4G24G 9G26
  14425852.090 6  11240917.795 6  22250561.523    22250570.117          15.500
        14.500
  10824985.122 6   8435055.173 6  21178710.023    21178717.410          19.250
        20.000
  -8112157.595 6  -6321135.185 6  21342712.203    21342719.516          18.000
        19.500
   -336316.302 1   -262063.316 4  23978203.391    23978218.172           3.250
         4.250
  -7108275.357 6  -5529610.828 6  22054468.227    22054475.277          17.750
        16.250
  15196372.198 5  11844200.692 5  24292334.953    24292346.402           7.750
         7.750
 99  3  2 21  2 45.0000000  0  6G 2G 7G 4G24G 9G26
  14466470.606 6  11272568.557 6  22258291.016    22258299.609          15.500
        14.500
  10866590.681 6   8467475.071 6  21186627.422    21186634.703          19.250
        20.250
  -8128181.113 6  -6333621.014 6  21339663.125    21339670.484          18.250
        19.750
   -373040.886 1   -290679.661 4  23971214.461    23971229.422           3.250
         4.000
  -7120114.151 6  -5538835.851 6  22052215.383    22052222.539          17.750
        16.250
  15248394.156 5  11884737.205 5  24302234.477    24302245.277           7.500
         7.500
 99  3  2 21  3  0.0000000  0  6G 2G 7G 4G24G 9G26
  14507157.668 6  11304272.717 6  22266033.633    22266042.168          16.000
        14.250
  10908254.992 6   8499940.758 6  21194555.711    21194563.078          18.750
        20.250
  -8144079.039 6  -6346008.980 6  21336637.836    21336645.125          18.000
        19.750
   -409736.777 1   -319273.659 4  23964231.711    23964246.230           3.250
         4.000
  -7131831.948 6  -5547966.602 6  22049985.422    22049992.742          18.000
        16.250
  15300469.925 5  11925315.641 5  24312143.828    24312155.262           7.750
         7.500
 99  3  2 21  3 15.0000000  0  6G 2G 7G 4G24G 9G26
  14547908.959 6  11336026.938 6  22273788.453    22273796.945          16.250
        14.250
  10949969.833 6   8532445.806 6  21202493.797    21202501.281          18.500
        20.000
  -8159859.692 6  -6358305.561 6  21333634.828    21333641.996          18.000
        19.500
   -446413.476 3   -347852.703 5  23957251.773    23957266.844           5.000
         7.250
  -7143437.631 6  -5557009.965 6  22047777.023    22047784.254          18.000
        16.250
  15352592.093 4  11965930.207 5  24322062.742    24322074.176           7.000
         7.750
 99  3  2 21  3 30.0000000  0  6G 2G 7G 4G24G 9G26
  14588729.803 6  11367835.351 6  22281556.398    22281564.949          16.250
        14.000
  10991735.944 6   8564990.812 6  21210441.703    21210449.074          18.500
        20.000
  -8175522.122 6  -6370510.024 6  21330654.188    21330661.395          18.000
        19.500
   -483069.252 3   -376415.438 5  23950276.641    23950291.238           5.500
         7.250
  -7154929.218 6  -5565964.441 6  22045590.273    22045597.402          18.000
        16.500
  15404762.361 4  12006582.293 5  24331990.500    24332001.855           6.750
         7.500
 99  3  2 21  3 45.0000000  0  6G 2G 7G 4G24G 9G26
  14629629.141 6  11399704.939 6  22289339.313    22289347.781          16.250
        14.000
  11033558.084 6   8597579.475 6  21218400.203    21218407.660          18.500
        20.000
  -8191061.296 6  -6382618.441 6  21327697.242    21327704.453          18.000
        19.500
   -519697.139 3   -404956.439 5  23943306.133    23943320.516           5.750
         7.000
  -7166299.010 6  -5574824.000 6  22043426.430    22043433.645          18.000
        16.250
  15456984.551 4  12047274.815 5  24341927.781    24341939.594           6.500
         7.750
 99  3  2 21  4  0.0000000  0  6G 2G 7G 4G24G 9G26
  14670597.512 6  11431628.307 6  22297135.461    22297143.828          16.250
        13.750
  11075427.958 6   8630205.334 6  21226367.727    21226375.227          18.500
        20.000
  -8206483.902 6  -6394636.020 6  21324762.469    21324769.676          17.750
        19.500
   -556302.163 3   -433479.629 5  23936340.641    23936354.816           6.000
         7.000
  -7177550.782 6  -5583591.598 6  22041285.359    22041292.512          18.250
        16.250
  15509251.665 4  12088002.333 5  24351874.313    24351885.738           6.250
         7.750
 99  3  2 21  4 15.0000000  0  6G 2G 7G 4G24G 9G26
  14711641.779 6  11463610.823 6  22304945.922    22304954.293          16.500
        13.750
  11117354.977 6   8662875.724 6  21234346.219    21234353.688          18.500
        20.000
  -8221783.873 6  -6406558.050 6  21321850.867    21321858.004          18.000
        19.500
   -592876.489 4   -461978.920 5  23929380.703    23929394.539           6.500
         7.250
  -7188676.619 6  -5592261.073 6  22039168.203    22039175.379          18.250
        16.250
  15561570.020 3  12128769.784 5  24361829.914    24361841.512           6.000
         7.500
 99  3  2 21  4 30.0000000  0  6G 2G 7G 4G24G 9G26
  14752762.022 6  11495652.536 6  22312770.961    22312779.090          16.500
        13.750
  11159337.836 6   8695589.623 6  21242335.188    21242342.598          18.500
        19.750
  -8236965.785 6  -6418388.080 6  21318961.648    21318968.875          18.000
        19.500
   -629420.884 4   -490454.871 5  23922426.594    23922440.172           6.750
         7.500
  -7199679.742 6  -5600834.922 6  22037074.453    22037081.547          18.250
        16.500
  15613938.020 3  12169575.935 5  24371795.180    24371806.898           6.000
         7.500
 99  3  2 21  4 45.0000000  0  6G 2G 7G 4G24G 9G26
  14793961.976 6  11527756.367 6  22320611.000    22320619.406          16.250
        14.000
  11201381.300 6   8728350.751 6  21250335.875    21250343.344          18.500
        19.750
  -8252026.102 6  -6430123.363 6  21316095.906    21316103.152          18.000
        19.500
   -665928.912 4   -518902.486 5  23915478.930    23915492.973           7.000
         7.750
  -7210556.715 6  -5609310.471 6  22035004.563    22035011.844          18.250
        16.500
  15666359.622 3  12210423.846 5  24381770.836    24381782.457           5.750
         7.500
 99  3  2 21  5  0.0000000  0  6G 2G 7G 4G24G 9G26
  14835241.268 6  11559922.016 6  22328466.094    22328474.613          16.000
        14.000
  11243485.987 6   8761159.581 6  21258348.188    21258355.574          18.500
        19.750
  -8266962.742 6  -6441762.280 6  21313253.531    21313260.672          18.000
        19.500
   -702403.197 4   -547323.795 5  23908538.133    23908552.063           7.250
         7.750
  -7221311.507 6  -5617690.820 6  22032957.906    22032965.188          18.250
        16.500
  15718831.455 3  12251310.904 5  24391756.195    24391767.738           5.500
         7.250
 99  3  2 21  5 15.0000000  0  6G 2G 7G 4G24G 9G26
  14876599.252 6  11592148.986 6  22336336.352    22336344.871          16.000
        14.000
  11285652.688 6   8794016.737 6  21266372.266    21266379.551          18.750
        19.750
  -8281770.628 6  -6453300.859 6  21310435.758    21310442.863          18.000
        19.750
   -738843.096 4   -575718.330 5  23901603.742    23901617.668           7.250
         7.750
  -7231943.197 6  -5625975.237 6  22030934.742    22030942.027          18.250
        16.750
  15771350.870 3  12292235.023 5  24401750.234    24401762.008           5.750
         7.500
 99  3  2 21  5 30.0000000  0  6G 2G 7G 4G24G 9G26
  14918032.277 6  11624434.418 6  22344220.820    22344229.406          16.250
        14.000
  11327881.207 6   8826922.064 6  21274408.086    21274415.488          18.750
        19.750
  -8296447.340 6  -6464737.227 6  21307642.859    21307649.992          18.000
        19.750
   -775247.874 5   -604085.485 5  23894675.969    23894689.633           7.500
         7.750
  -7242451.500 6  -5634163.510 6  22028935.078    22028942.332          18.250
        16.750
  15823912.642 3  12333192.144 5  24411752.945    24411764.316           5.500
         7.500
 99  3  2 21  5 45.0000000  0  6G 2G 7G 4G24G 9G26
  14959537.819 6  11656776.368 6  22352119.219    22352127.590          16.250
        13.750
  11370171.117 6   8859875.220 6  21282455.516    21282462.848          18.750
        19.750
  -8310992.347 6  -6476070.970 6  21304874.977    21304882.137          18.000
        20.000
   -811616.909 4   -632424.796 5  23887754.836    23887768.637           7.250
         7.750
  -7252835.541 6  -5642254.963 6  22026958.984    22026966.227          18.500
        16.750
  15876512.236 3  12374178.739 5  24421762.070    24421773.844           5.500
         7.500
 99  3  2 21  6  0.0000000  0  6G 2G 7G 4G24G 9G26
  15001111.464 6  11689171.381 6  22360030.453    22360038.836          16.250
        13.750
  11412522.134 6   8892875.999 6  21290514.617    21290521.926          18.750
        19.750
  -8325404.378 6  -6487301.090 6  21302132.414    21302139.555          18.000
        20.000
   -847949.098 4   -660735.393 5  23880841.125    23880854.781           7.000
         8.000
  -7263094.520 6  -5650248.954 6  22025006.766    22025014.074          18.500
        16.750
  15929147.844 3  12415193.402 5  24431778.414    24431790.148           5.500
         7.500
 99  3  2 21  6 15.0000000  0  6G 2G 7G 4G24G 9G26
  15042751.921 6  11721618.458 6  22367954.422    22367962.785          16.250
        13.750
  11454932.377 6   8925922.922 6  21298584.953    21298592.277          18.750
        19.750
  -8339683.853 6  -6498427.925 6  21299415.094    21299422.305          18.000
        20.250
   -884246.001 4   -689018.486 5  23873933.555    23873947.211           7.000
         8.250
  -7273228.956 6  -5658145.912 6  22023078.234    22023085.406          18.250
        16.750
  15981819.716 3  12456236.312 5  24441801.531    24441813.359           5.500
         7.500
 99  3  2 21  6 30.0000000  0  6G 2G 7G 4G24G 9G26
  15084464.356 6  11754121.614 6  22375892.023    22375900.527          16.250
        13.750
  11497403.275 6   8959017.115 6  21306666.898    21306674.246          18.750
        19.750
  -8353826.741 6  -6509448.327 6  21296723.844    21296731.078          18.000
        20.250
   -920504.524 4   -717271.678 5  23867033.625    23867047.359           6.750
         8.500
  -7283238.214 6  -5665945.321 6  22021173.539    22021180.715          18.250
        17.000
  16034527.941 3  12497307.578 5  24451831.484    24451843.359           5.500
         7.500
 99  3  2 21  6 45.0000000  0  6G 2G 7G 4G24G 9G26
  15126256.271 6  11786686.711 6  22383844.828    22383853.230          16.250
        13.500
  11539943.022 6   8992164.952 6  21314762.109    21314769.250          18.750
        19.750
  -8367822.306 6  -6520353.930 6  21294060.508    21294067.836          18.250
        20.500
   -956716.260 4   -745488.408 5  23860142.594    23860156.414           7.000
         8.750
  -7293112.716 6  -5673639.724 6  22019294.594    22019301.875          18.500
        17.000
  16087283.624 3  12538415.791 5  24461870.680    24461882.613           5.500
         7.500
 99  3  2 21  7  0.0000000  0  6G 2G 7G 4G24G 9G26
  15168121.533 6  11819308.951 6  22391811.586    22391819.996          16.250
        13.500
  11582546.920 6   9025362.775 6  21322869.289    21322876.590          19.000
        19.750
  -8381671.044 6  -6531145.126 6  21291425.172    21291432.281          18.250
        20.500
   -992889.312 4   -773674.999 5  23853258.898    23853272.742           7.250
         9.000
  -7302855.071 6  -5681231.162 6  22017440.672    22017447.988          18.500
        17.000
  16140080.798 3  12579556.362 5  24471917.922    24471929.793           5.750
         7.500
 99  3  2 21  7 15.0000000  0  6G 2G 7G 4G24G 9G26
  15210051.604 6  11851981.707 6  22399790.555    22399798.941          16.250
        13.250
  11625203.711 6   9058601.821 6  21330986.633    21330994.004          19.000
        19.750
  -8395381.941 6  -6541828.912 6  21288816.086    21288823.301          18.250
        20.500
  -1029034.203 4   -801839.642 5  23846381.008    23846394.324           7.250
         8.750
  -7312472.521 6  -5688725.263 6  22015610.547    22015617.820          18.500
        17.000
  16192912.830 3  12620724.068 5  24481971.828    24481983.332           5.750
         7.500
 99  3  2 21  7 30.0000000  0  6G 2G 7G 4G24G 9G26
  15252054.230 6  11884710.997 6  22407783.344    22407791.727          16.000
        13.000
  11667923.840 6   9091890.219 6  21339116.102    21339123.457          18.750
        19.500
  -8408952.989 6  -6552403.722 6  21286233.539    21286240.801          18.000
        20.500
  -1065140.925 4   -829974.548 5  23839509.680    23839523.191           7.250
         8.750
  -7321957.351 6  -5696116.032 6  22013805.578    22013812.781          18.750
        17.000
  16245787.338 3  12661924.888 5  24492033.148    24492045.266           5.750
         7.750
 99  3  2 21  7 45.0000000  0  6G 2G 7G 4G24G 9G26
  15294130.814 6  11917497.914 6  22415790.117    22415798.637          16.000
        13.250
  11710708.283 6   9125228.732 6  21347257.813    21347265.141          19.000
        19.750
  -8422387.682 6  -6562872.283 6  21283676.898    21283684.211          18.000
        20.500
  -1101211.773 4   -858081.494 5  23832645.461    23832659.105           7.250
         8.750
  -7331308.005 6  -5703402.241 6  22012026.383    22012033.441          18.750
        17.000
  16298706.106 3  12703160.176 5  24502103.203    24502115.246           5.750
         7.500
 99  3  2 21  8  0.0000000  0  6G 2G 7G 4G24G 9G26
  15336283.650 6  11950344.240 6  22423811.547    22423820.129          15.750
        13.250
  11753554.674 6   9158615.516 6  21355411.219    21355418.535          19.000
        19.750
  -8435687.275 6  -6573235.572 6  21281146.063    21281153.246          18.250
        20.500
  -1137248.883 4   -886162.154 5  23825787.695    23825801.176           6.750
         8.500
  -7340525.937 6  -5710585.034 6  22010272.242    22010279.367          18.750
        17.000
  16351672.031 3  12744432.220 5  24512182.672    24512194.754           5.750
         7.500
 99  3  2 21  8 15.0000000  0  6G 2G 7G 4G24G 9G26
  15378517.124 6  11983253.409 6  22431848.523    22431856.938          16.000
        13.250
  11796465.383 6   9192052.416 6  21363576.953    21363584.332          19.000
        19.750
  -8448848.087 6  -6583490.721 6  21278641.672    21278648.898          18.250
        20.500
  -1173251.721 4   -914216.112 5  23818936.352    23818949.973           6.750
         8.250
  -7349611.559 6  -5717664.726 6  22008543.102    22008550.336          18.750
        17.000
  16404693.288 3  12785747.386 5  24522272.336    24522284.266           5.750
         7.250
 99  3  2 21  8 30.0000000  0  6G 2G 7G 4G24G 9G26
  15420833.491 6  12016227.174 6  22439901.164    22439909.465          16.000
        13.250
  11839441.134 6   9225540.001 6  21371755.039    21371762.336          19.000
        19.750
  -8461870.552 6  -6593638.066 6  21276163.570    21276170.805          18.250
        20.750
  -1209221.319 4   -942244.172 5  23812091.680    23812104.871           7.000
         8.000
  -7358568.444 6  -5724644.108 6  22006838.727    22006845.824          18.750
        17.000
  16457769.968 3  12827105.746 5  24532372.656    24532384.480           5.750
         6.750
 99  3  2 21  8 45.0000000  0  6G 2G 7G 4G24G 9G26
  15463226.114 6  12049260.358 6  22447968.172    22447976.691          16.000
        13.250
  11882477.756 6   9259075.015 6  21379944.703    21379951.996          19.250
        19.750
  -8474760.010 6  -6603681.768 6  21273710.781    21273717.863          18.500
        21.000
  -1245163.863 4   -970251.164 5  23805251.758    23805264.984           7.250
         8.000
  -7367403.506 6  -5731528.559 6  22005157.438    22005164.625          18.750
        17.250
  16510896.005 3  12868502.563 5  24542482.219    24542494.207           5.750
         6.750
 99  3  2 21  9  0.0010000  0  6G 2G 7G 4G24G 9G26
  15505697.603 6  12082354.988 6  22456050.192    22456058.649          15.750
        13.250
  11925576.998 6   9292658.826 6  21388146.169    21388153.446          19.250
        19.750
  -8487515.338 6  -6613620.959 6  21271283.458    21271290.540          18.500
        21.000
  -1281081.016 4   -998238.367 5  23798416.896    23798429.935           7.000
         8.000
  -7376115.414 6  -5738317.049 6  22003499.653    22003506.771          19.000
        17.250
  16564075.038 3  12909940.656 5  24552602.099    24552613.696           5.750
         6.750
 99  3  2 21  9 15.0010000  0  6G 2G 7G 4G24G 9G26
  15548250.432 6  12115512.998 6  22464147.739    22464156.345          15.750
        13.250
  11968737.062 6   9326290.027 6  21396359.231    21396366.692          19.250
        19.750
  -8500131.138 6  -6623451.424 6  21268882.771    21268889.946          18.500
        21.000
  -1316960.335 4  -1026196.092 5  23791588.966    23791601.946           7.250
         7.750
  -7384699.508 6  -5745005.943 6  22001866.067    22001873.271          18.750
        17.500
  16617303.181 3  12951417.034 5  24562730.966    24562742.974           5.750
         6.750
 99  3  2 21  9 30.0010000  0  6G 2G 7G 4G24G 9G26
  15590885.633 6  12148735.199 6  22472260.997    22472269.470          15.750
        13.250
  12011958.672 6   9359969.189 6  21404584.153    21404591.536          19.250
        19.750
  -8512612.353 6  -6633177.019 6  21266507.724    21266514.751          18.500
        21.000
  -1352801.404 4  -1054124.021 5  23784768.771    23784781.731           7.250
         7.750
  -7393162.834 6  -5751600.730 6  22000255.700    22000262.806          19.000
        17.500
  16670580.090 3  12992931.399 5  24572869.130    24572881.302           5.750
         6.750
 99  3  2 21  9 45.0010000  0  6G 2G 7G 4G24G 9G26
  15633607.479 6  12182024.912 6  22480390.708    22480399.196          15.750
        13.000
  12055246.674 6   9393700.084 6  21412821.474    21412828.946          19.250
        19.750
  -8524950.274 6  -6642790.955 6  21264159.888    21264166.919          18.750
        21.000
  -1388595.946 4  -1082015.685 5  23777957.013    23777969.954           7.000
         7.750
  -7401499.277 6  -5758096.646 6  21998669.200    21998676.349          19.000
        17.500
  16723909.078 3  13034486.358 5  24583017.630    24583029.618           5.750
         6.750
 99  3  2 21 10  0.0010000  0  6G 2G 7G 4G24G 9G26
  15676406.650 6  12215374.891 6  22488535.216    22488543.751          15.750
        13.000
  12098587.061 6   9427471.798 6  21421068.950    21421076.298          19.250
        19.750
  -8537147.908 6  -6652295.576 6  21261838.747    21261845.860          18.750
        21.250
  -1424351.991 4  -1109877.358 5  23771152.544    23771165.458           6.750
         7.500
  -7409716.166 6  -5764499.404 6  21997105.606    21997112.700          19.250
        17.500
  16777281.257 3  13076074.959 5  24593173.825    24593185.798           5.750
         6.500
 99  3  2 21 10 15.0010000  0  6G 2G 7G 4G24G 9G26
  15719280.888 6  12248783.344 6  22496693.950    22496702.614          15.750
        13.000
  12141981.230 6   9461285.423 6  21429326.513    21429333.876          19.000
        19.750
  -8549205.335 6  -6661690.949 6  21259544.317    21259551.396          18.750
        21.250
  -1460066.322 4  -1137706.535 5  23764356.169    23764369.052           6.500
         7.750
  -7417814.951 6  -5770810.133 6  21995564.442    21995571.696          19.250
        17.500
  16830694.197 3  13117695.339 5  24603338.114    24603350.063           5.500
         6.500
 99  3  2 21 10 30.0010000  0  6G 2G 7G 4G24G 9G26
  15762227.759 6  12282248.411 6  22504866.458    22504874.942          15.250
        13.000
  12185429.571 6   9495141.257 6  21437594.364    21437601.751          19.000
        19.500
  -8561124.726 6  -6670978.760 6  21257275.958    21257283.142          18.750
        21.250
  -1495736.691 4  -1165501.441 5  23757568.169    23757581.087           6.250
         7.750
  -7425793.333 6  -5777027.044 6  21994045.958    21994053.165          19.250
        17.500
  16884145.062 3  13159345.249 5  24613509.888    24613521.731           5.750
         6.750
 99  3  2 21 10 45.0010000  0  6G 2G 7G 4G24G 9G26
  15805241.038 6  12315765.219 6  22513051.528    22513060.247          15.250
        13.000
  12228926.564 6   9529035.007 6  21445871.646    21445878.958          19.250
        19.500
  -8572910.699 6  -6680162.605 6  21255033.146    21255040.255          18.750
        21.250
  -1531364.821 4  -1193263.436 5  23750788.536    23750801.341           6.500
         8.000
  -7433650.684 6  -5783149.640 6  21992551.091    21992558.200          19.250
        17.500
  16937623.846 3  13201016.919 5  24623686.817    24623698.880           5.750
         6.500
 99  3  2 21 11  0.0010000  0  6G 2G 7G 4G24G 9G26
  15848326.280 6  12349338.105 6  22521250.458    22521258.981          15.000
        12.750
  12272474.482 6   9562968.431 6  21454158.528    21454165.927          19.000
        19.500
  -8584555.755 6  -6689236.646 6  21252817.083    21252824.181          18.750
        21.250
  -1566943.391 4  -1220986.831 5  23744018.106    23744030.899           6.750
         8.000
  -7441377.307 6  -5789170.372 6  21991080.700    21991087.880          19.250
        17.500
  16991135.010 3  13242713.813 5  24633869.716    24633881.462           5.750
         6.250
 99  3  2 21 11 15.0010000  0  6G 2G 7G 4G24G 9G26
  15891481.365 6  12382965.409 6  22529462.458    22529471.149          14.750
        12.750
  12316068.061 6   9596937.437 6  21462454.067    21462461.442          19.000
        19.500
  -8596066.048 6  -6698205.680 6  21250626.778    21250633.825          18.750
        21.250
  -1602476.562 4  -1248674.843 5  23737256.083    23737268.708           6.750
         8.000
  -7448977.245 6  -5795092.389 6  21989634.411    21989641.528          19.250
        17.500
  17044674.060 3  13284432.453 5  24644057.716    24644069.411           5.750
         6.000
 99  3  2 21 11 30.0010000  0  6G 2G 7G 4G24G 9G26
  15934706.689 6  12416647.447 6  22537688.028    22537696.692          14.750
        12.750
  12359711.925 6   9630945.626 6  21470759.216    21470766.603          19.250
        19.500
  -8607441.022 6  -6707069.269 6  21248462.200    21248469.325          18.750
        21.500
  -1637962.988 4  -1276326.433 5  23730503.247    23730516.075           7.250
         8.500
  -7456448.593 6  -5800914.203 6  21988212.692    21988219.724          19.250
        17.500
  17098243.077 3  13326174.424 5  24654251.685    24654263.431           5.750
         5.750
 99  3  2 21 11 45.0010000  0  6G 2G 7G 4G24G 9G26
  15978000.803 6  12450383.082 6  22545926.786    22545935.341          15.000
        12.750
  12403409.232 6   9664995.462 6  21479074.630    21479082.040          19.000
        19.500
  -8618675.895 6  -6715823.694 6  21246324.263    21246331.380          18.750
        21.250
  -1673401.491 5  -1303940.683 5  23723759.341    23723772.009           7.500
         8.250
  -7463786.498 6  -5806632.044 6  21986816.138    21986823.173          19.250
        17.500
  17151843.611 3  13367941.002 5  24664451.380    24664462.989           5.750
         5.750
 99  3  2 21 12  0.0010000  0  6G 2G 7G 4G24G 9G26
  16021358.418 6  12484168.200 6  22554177.614    22554185.923          15.000
        12.750
  12447153.639 6   9699082.004 6  21487398.958    21487406.423          19.000
        19.500
  -8629776.819 6  -6724473.733 6  21244211.794    21244218.876          18.750
        21.250
  -1708801.378 5  -1331524.842 5  23717023.153    23717035.493           7.750
         8.250
  -7470994.928 6  -5812248.988 6  21985444.458    21985451.462          19.250
        17.500
  17205470.949 3  13409728.442 5  24674656.216    24674668.247           5.500
         5.750
 99  3  2 21 12 15.0010000  0  6G 2G 7G 4G24G 9G26
  16064786.512 6  12518008.241 6  22562441.630    22562450.212          15.250
        12.750
  12490949.323 6   9733208.489 6  21495733.036    21495740.481          19.000
        19.500
  -8640745.261 6  -6733020.548 6  21242124.466    21242131.552          18.750
        21.250
  -1744160.499 5  -1359077.261 5  23710294.310    23710306.497           8.000
         8.250
  -7478073.096 6  -5817764.428 6  21984097.661    21984104.599          19.250
        17.500
  17259129.177 3  13451539.949 5  24684867.130    24684879.286           5.750
         5.750
 99  3  2 21 12 30.0010000  0  6G 2G 7G 4G24G 9G26
  16108292.683 6  12551909.128 6  22570720.708    22570729.360          15.000
        12.750
  12534802.685 6   9767379.924 6  21504078.114    21504085.501          19.000
        19.500
  -8651576.777 6  -6741460.667 6  21240063.419    21240070.337          18.750
        21.250
  -1779472.152 5  -1386592.686 5  23703574.255    23703586.907           8.000
         8.250
  -7485014.054 6  -5823172.953 6  21982776.856    21982783.755          19.250
        17.750
  17312824.840 3  13493380.612 5  24695085.333    24695097.282           5.500
         6.000
 99  3  2 21 12 45.0010000  0  6G 2G 7G 4G24G 9G26
  16151872.480 6  12585867.370 6  22579013.458    22579022.255          15.000
        12.750
  12578706.471 6   9801590.648 6  21512432.646    21512440.103          19.000
        19.500
  -8662273.619 6  -6749795.840 6  21238027.864    21238034.833          18.750
        21.250
  -1814742.918 5  -1414076.247 5  23696862.278    23696874.837           7.750
         8.500
  -7491822.280 6  -5828478.057 6  21981481.294    21981488.239          19.250
        17.500
  17366551.808 3  13535245.674 5  24705309.575    24705321.638           5.750
         6.000
 99  3  2 21 13  0.0010000  0  6G 2G 7G 4G24G 9G26
  16195534.027 6  12619889.325 6  22587322.122    22587330.755          14.750
        12.750
  12622667.899 6   9835846.292 6  21520798.247    21520805.606          19.000
        19.250
  -8672825.591 6  -6758018.138 6  21236019.935    21236026.978          19.000
        21.250
  -1849965.492 5  -1441522.265 5  23690159.919    23690172.188           8.000
         8.500
  -7498491.218 6  -5833674.619 6  21980212.146    21980219.126          19.250
        17.750
  17420318.357 3  13577141.576 5  24715541.356    24715553.216           6.000
         6.250
 99  3  2 21 13 15.0010000  0  6G 2G 7G 4G24G 9G26
  16239266.832 6  12653966.804 6  22595644.239    22595652.946          14.500
        12.750
  12666678.463 6   9870140.217 6  21529173.216    21529180.657          18.750
        19.500
  -8683247.139 6  -6766138.796 6  21234036.661    21234043.692          18.750
        21.000
  -1885151.759 5  -1468939.978 5  23683464.083    23683476.251           8.250
         8.750
  -7505034.403 6  -5838773.194 6  21978967.013    21978974.099          19.250
        17.750
  17474115.266 3  13619061.162 5  24725778.599    24725790.802           6.000
         6.250
 99  3  2 21 13 30.0010000  0  6G 2G 7G 4G24G 9G26
  16283079.634 6  12688106.612 6  22603981.481    22603990.364          14.500
        12.750
  12710751.257 6   9904482.639 6  21537559.958    21537567.384          18.750
        19.250
  -8693529.957 6  -6774151.359 6  21232079.856    21232086.747          18.750
        21.000
  -1920290.717 5  -1496320.833 5  23676777.075    23676789.587           8.250
         8.750
  -7511442.407 6  -5843766.430 6  21977747.544    21977754.618          19.250
        17.750
  17527951.891 3  13661011.674 5  24736023.114    24736035.489           5.750
         6.250
 99  3  2 21 13 45.0010000  0  6G 2G 7G 4G24G 9G26
  16326960.413 6  12722299.399 6  22612331.677    22612340.458          14.250
        12.500
  12754874.859 6   9938864.645 6  21545956.450    21545963.927          18.750
        19.250
  -8703683.298 6  -6782063.031 6  21230147.763    21230154.708          18.750
        21.000
  -1955392.157 5  -1523672.469 5  23670097.372    23670109.587           8.250
         8.750
  -7517725.886 6  -5848662.639 6  21976551.521    21976558.790          19.250
        17.750
  17581818.781 3  13702985.760 5  24746273.497    24746286.185           5.500
         6.250
 99  3  2 21 14  0.0010000  0  6G 2G 7G 4G24G 9G26
  16370921.134 6  12756554.469 6  22620696.989    22620705.837          14.250
        12.500
  12799055.735 6   9973291.279 6  21554363.817    21554371.298          19.000
        19.250
  -8713698.249 6  -6789866.864 6  21228241.903    21228248.849          18.750
        21.000
  -1990445.408 5  -1550986.544 5  23663426.880    23663439.142           8.250
         8.750
  -7523875.030 6  -5853454.173 6  21975381.591    21975388.673          19.250
        18.000
  17635725.087 3  13744990.576 5  24756531.388    24756544.083           5.500
         6.250
 99  3  2 21 14 15.0010000  0  6G 2G 7G 4G24G 9G26
  16414958.640 6  12790869.368 6  22629077.333    22629085.958          14.250
        12.750
  12843285.442 6  10007755.969 6  21562780.497    21562787.938          19.000
        19.250
  -8723583.857 6  -6797569.914 6  21226360.778    21226367.653          18.750
        20.750
  -2025456.216 5  -1578267.558 5  23656764.513    23656776.751           8.000
         9.000
  -7529893.917 6  -5858144.200 6  21974236.325    21974243.481          19.250
        18.000
  17689664.431 3  13787021.110 5  24766796.060    24766808.677           5.500
         6.250
 99  3  2 21 14 30.0010000  0  5G 2G 7G 4G24G 9
  16459066.400 6  12825239.023 6  22637470.692    22637479.415          14.250
        12.750
  12887562.384 6  10042257.464 6  21571206.161    21571213.603          19.000
        19.250
  -8733339.567 6  -6805171.746 6  21224504.325    21224511.282          18.750
        20.750
  -2060425.441 5  -1605516.162 5  23650109.825    23650122.239           8.000
         9.000
  -7535783.668 6  -5862733.609 6  21973115.544    21973122.614          19.250
        18.000
 99  3  2 21 14 45.0010000  0  5G 2G 7G 4G24G 9
  16503245.472 6  12859664.232 6  22645877.685    22645886.603          14.250
        12.750
  12931891.134 6  10076799.333 6  21579641.622    21579649.153          19.000
        19.250
  -8742956.497 6  -6812665.429 6  21222674.231    21222681.200          18.750
        20.750
  -2095347.773 5  -1632728.217 5  23643464.106    23643476.610           8.250
         9.500
  -7541539.326 6  -5867218.531 6  21972020.356    21972027.505          19.250
        18.000
 99  3  2 21 15  0.0010000  0  5G 2G 7G 4G24G 9
  16547487.194 6  12894138.273 6  22654296.661    22654305.548          14.250
        12.750
  12976265.942 6  10111377.084 6  21588085.817    21588093.353          18.750
        19.250
  -8752439.442 6  -6820054.719 6  21220869.630    21220876.610          18.500
        20.750
  -2130230.830 5  -1659909.684 5  23636826.302    23636838.458           8.250
         9.500
  -7547169.892 6  -5871605.971 6  21970948.888    21970955.954          19.250
        18.000
 99  3  2 21 15 15.0010000  0  5G 2G 7G 4G24G 9
  16591796.860 6  12928665.253 6  22662728.505    22662737.356          14.250
        12.750
  13020689.974 6  10145993.200 6  21596539.567    21596547.114          18.750
        19.250
  -8761788.420 6  -6827339.610 6  21219090.544    21219097.419          18.500
        20.500
  -2165069.630 5  -1687056.658 5  23630196.505    23630208.622           8.500
         9.750
  -7552674.529 6  -5875895.291 6  21969901.474    21969908.481          19.500
        18.250
 99  3  2 21 15 30.0010000  0  5G 2G 7G 4G24G 9
  16636175.563 6  12963246.029 6  22671173.638    22671182.485          14.250
        12.500
  13065161.357 6  10180646.201 6  21605002.075    21605009.751          18.750
        19.250
  -8771005.073 6  -6834521.393 6  21217336.606    21217343.560          18.750
        20.500
  -2199866.927 5  -1714171.301 5  23623574.544    23623586.704           8.500
         9.750
  -7558055.563 6  -5880088.294 6  21968877.255    21968884.302          19.250
        18.250
 99  3  2 21 15 45.0010000  0  6G 2G 7G 4G24G 9G 5
  16680612.719 6  12997872.346 6  22679629.708    22679638.532          14.000
        12.500
  13109663.698 6  10215323.327 6  21613470.583    21613478.235          18.750
        19.000
  -8780099.112 6  -6841607.638 6  21215606.106    21215612.989          18.500
        20.500
  -2234633.864 5  -1741262.283 5  23616958.544    23616970.755           8.750
        10.000
  -7563326.421 6  -5884195.446 6  21967874.263    21967881.306          19.250
        18.250
    -12695.16813     -9892.95715  24463820.903    24463831.540           6.000
         6.500
 99  3  2 21 16  0.0010000  0  6G 2G 7G 4G24G 9G 5
  16725118.137 6  13032551.858 6  22688098.833    22688107.712          14.000
        12.500
  13154205.060 6  10250030.868 6  21621946.653    21621954.157          18.750
        18.750
  -8789059.150 6  -6848589.460 6  21213900.997    21213907.829          18.750
        20.500
  -2269360.309 5  -1768321.713 5  23610350.247    23610362.544           8.250
        10.000
  -7568477.634 6  -5888209.369 6  21966894.075    21966901.196          19.250
        18.250
    -36510.371 3    -28450.152 5  24459289.224    24459299.513           6.000
         6.750
 99  3  2 21 16 15.0010000  0  6G 2G 7G 4G24G 9G 5
  16769698.422 6  13067289.716 6  22696582.325    22696591.071          13.750
        12.500
  13198793.786 6  10284775.314 6  21630431.606    21630439.181          18.750
        18.750
  -8797875.847 6  -6855459.593 6  21212223.161    21212230.028          18.750
        20.500
  -2304038.843 5  -1795343.808 5  23603750.997    23603763.302           8.250
        10.000
  -7573501.660 6  -5892124.185 6  21965937.942    21965945.192          19.250
        18.250
    -60329.072 4    -47010.117 5  24454756.489    24454766.696           6.250
         6.750
 99  3  2 21 16 30.0010000  0  6G 2G 7G 4G24G 9G 5
  16814343.153 6  13102077.777 6  22705077.911    22705086.841          13.750
        12.500
  13243423.199 6  10319551.459 6  21638924.185    21638931.782          18.750
        18.750
  -8806555.453 6  -6862222.901 6  21210571.599    21210578.466          18.750
        20.500
  -2338678.688 5  -1822335.765 5  23597159.161    23597171.228           8.250
        10.000
  -7578408.364 6  -5895947.578 6  21965004.302    21965011.431          19.250
        18.250
    -84156.267 4    -65576.684 5  24450222.271    24450232.517           6.250
         6.750
 99  3  2 21 16 45.0010000  0  6G 2G 7G 4G24G 9G 5
  16859047.712 6  13136912.465 6  22713585.044    22713593.810          13.750
        12.500
  13288090.191 6  10354356.887 6  21647424.122    21647431.571          18.750
        18.750
  -8815100.307 6  -6868881.206 6  21208945.528    21208952.353          18.750
        20.250
  -2373283.186 5  -1849300.169 5  23590574.114    23590586.122           8.250
        10.000
  -7583202.701 6  -5899683.418 6  21964091.771    21964098.860          19.250
        18.250
   -107993.958 4    -84151.437 5  24445686.388    24445696.353           6.500
         6.750
 99  3  2 21 17  0.0010000  0  6G 2G 7G 4G24G 9G 5
  16903817.191 6  13171797.744 6  22722104.146    22722113.181          13.750
        12.500
  13332795.197 6  10389191.943 6  21655931.239    21655938.771          18.750
        18.750
  -8823510.669 6  -6875434.706 6  21207345.122    21207351.860          18.500
        20.250
  -2407852.522 5  -1876237.172 5  23583995.364    23584007.528           7.750
        10.000
  -7587881.575 6  -5903329.276 6  21963201.450    21963208.532          19.250
        18.250
   -131838.208 4   -102731.305 5  24441148.685    24441158.989           6.750
         7.250
 99  3  2 21 17 15.0010000  0  6G 2G 7G 4G24G 9G 5
  16948654.718 6  13206736.038 6  22730636.614    22730645.509          13.750
        12.500
  13377538.205 6  10424056.604 6  21664445.536    21664453.118          18.500
        18.500
  -8831791.275 6  -6881887.105 6  21205769.294    21205776.087          18.500
        20.250
  -2442386.889 5  -1903146.930 5  23577423.872    23577435.724           7.750
        10.000
  -7592444.206 6  -5906884.565 6  21962333.263    21962340.438          19.000
        18.250
   -155684.328 4   -121312.633 5  24436610.942    24436620.849           7.250
         7.000
 99  3  2 21 17 30.0010000  0  6G 2G 7G 4G24G 9G 5
  16993557.974 6  13241725.547 6  22739181.489    22739190.528          14.000
        12.500
  13422315.382 6  10458947.895 6  21672966.388    21672973.825          18.500
        18.500
  -8839947.165 6  -6888242.322 6  21204217.263    21204224.005          18.750
        20.250
  -2476890.759 5  -1930032.924 5  23570857.747    23570869.728           7.750
        10.000
  -7596891.647 6  -5910350.094 6  21961486.989    21961494.079          19.000
        18.250
   -179531.519 4   -139894.782 5  24432072.958    24432083.290           7.000
         7.250
 99  3  2 21 17 45.0010000  0  6G 2G 7G 4G24G 9G 5
  17038533.602 6  13276771.464 6  22747740.122    22747749.036          14.000
        12.500
  13467138.661 6  10493875.103 6  21681495.872    21681503.310          18.500
        18.500
  -8847964.564 6  -6894489.623 6  21202691.708    21202698.509          18.750
        20.250
  -2511353.204 5  -1956886.640 5  23564299.700    23564311.688           8.000
         9.750
  -7601211.109 6  -5913715.893 6  21960664.958    21960671.997          19.000
        18.250
   -203369.745 4   -158469.958 5  24427536.864    24427546.884           6.750
         7.000
 99  3  2 21 18  0.0010000  0  6G 2G 7G 4G24G 9G 5
  17083573.874 6  13311867.748 6  22756311.185    22756319.985          14.250
        12.500
  13512006.496 6  10528837.035 6  21690033.903    21690041.290          18.500
        18.500
  -8855844.226 6  -6900629.595 6  21201192.161    21201198.997          18.750
        20.500
  -2545776.177 5  -1983709.599 5  23557749.036    23557760.903           7.750
         9.750
  -7605404.303 6  -5916983.299 6  21959867.060    21959874.036          19.000
        18.250
   -227202.460 4   -177040.853 5  24423001.450    24423011.435           7.000
         7.000
 99  3  2 21 18 15.0010000  0  6G 2G 7G 4G24G 9G 5
  17128673.578 6  13347010.345 6  22764893.239    22764902.013          14.250
        12.250
  13556919.729 6  10563834.345 6  21698580.638    21698588.122          18.500
        18.500
  -8863587.271 6  -6906663.106 6  21199718.708    21199725.505          18.750
        20.500
  -2580163.439 5  -2010504.730 5  23551205.271    23551217.220           7.750
         9.750
  -7609470.980 6  -5920152.131 6  21959093.067    21959100.032          19.250
        18.500
   -251028.869 4   -195606.824 5  24418467.294    24418477.591           6.750
         7.250
 99  3  2 21 18 30.0010000  0  6G 2G 7G 4G24G 9G 5
  17173839.216 6  13382204.307 6  22773488.028    22773496.743          14.250
        12.250
  13601883.072 6  10598870.693 6  21707136.794    21707144.243          18.500
        18.250
  -8871191.400 6  -6912588.381 6  21198271.622    21198278.442          18.750
        20.500
  -2614510.957 5  -2037268.892 5  23544669.130    23544681.071           7.750
         9.750
  -7613403.865 6  -5923216.708 6  21958344.677    21958351.724          19.000
        18.500
   -274841.244 4   -214161.848 5  24413935.817    24413945.974           6.500
         7.500
 99  3  2 21 18 45.0010000  0  6G 2G 7G 4G24G 9G 5
  17219075.641 6  13417453.436 6  22782096.231    22782104.950          14.000
        12.250
  13646898.467 6  10633947.608 6  21715703.114    21715710.560          18.500
        18.250
  -8878654.113 6  -6918403.457 6  21196851.560    21196858.360          18.750
        20.500
  -2648812.784 5  -2063997.465 5  23538141.396    23538153.579           8.000
         9.750
  -7617198.273 6  -5926173.376 6  21957622.638    21957629.806          19.250
        18.500
   -298634.335 4   -232701.852 5  24409408.349    24409418.345           6.500
         7.250
 99  3  2 21 19  0.0010000  0  6G 2G 7G 4G24G 9G 5
  17264374.260 6  13452751.032 6  22790716.271    22790724.985          14.250
        12.250
  13691954.566 6  10669056.235 6  21724277.114    21724284.571          18.500
        18.250
  -8885985.342 6  -6924116.081 6  21195456.341    21195463.200          18.750
        20.500
  -2683077.645 5  -2090697.215 5  23531620.966    23531632.856           8.000
         9.750
  -7620863.575 6  -5929029.440 6  21956925.138    21956932.255          19.000
        18.500
   -322417.990 4   -251234.513 5  24404882.591    24404892.083           6.250
         7.250
 99  3  2 21 19 15.0010000  0  6G 2G 7G 4G24G 9G 5
  17309729.521 6  13488092.763 6  22799346.989    22799355.802          14.000
        12.250
  13737048.335 6  10704194.216 6  21732858.161    21732865.759          18.500
        18.250
  -8893189.165 6  -6929729.422 6  21194085.419    21194092.349          18.750
        20.500
  -2717308.642 5  -2117370.591 5  23525107.044    23525118.806           8.000
         9.750
  -7624407.374 6  -5931790.832 6  21956250.841    21956258.071          19.000
        18.500
   -346196.529 3   -269763.168 5  24400357.114    24400367.044           5.750
         7.000
 99  3  2 21 19 30.0010000  0  6G 2G 7G 4G24G 9G 5
  17355148.128 6  13523483.848 6  22807989.958    22807998.747          14.000
        12.250
  13782187.524 6  10739367.593 6  21741447.864    21741455.415          18.500
        18.000
  -8900255.810 6  -6935235.876 6  21192740.692    21192747.442          18.750
        20.750
  -2751495.860 5  -2144009.849 5  23518601.442    23518612.954           8.250
         9.500
  -7627823.654 6  -5934452.857 6  21955600.763    21955607.915          19.250
        18.500
   -369963.825 3   -288283.070 5  24395834.278    24395844.481           5.500
         7.250
 99  3  2 21 19 45.0010000  0  6G 2G 7G 4G24G 9G 5
  17400620.966 6  13558917.195 6  22816643.177    22816652.118          14.000
        12.250
  13827364.812 6  10774570.655 6  21750044.763    21750052.306          18.500
        18.000
  -8907187.197 6  -6940636.926 6  21191421.747    21191428.540          19.000
        20.750
  -2785645.066 5  -2170619.498 5  23512102.825    23512114.720           8.250
         9.750
  -7631117.117 6  -5937019.179 6  21954973.997    21954981.337          19.000
        18.750
   -393731.173 3   -306803.016 5  24391311.606    24391321.521           5.750
         7.250
 99  3  2 21 20  0.0010000  0  6G 2G 7G 4G24G 9G 5
  17446151.248 6  13594395.303 6  22825307.325    22825316.306          14.000
        12.250
  13872581.459 6  10809804.392 6  21758649.372    21758656.958          18.500
        18.000
  -8913980.239 6  -6945930.186 6  21190129.114    21190135.888          19.000
        20.750
  -2819751.762 5  -2197196.007 5  23505612.380    23505624.239           8.250
         9.750
  -7634285.880 6  -5939488.336 6  21954371.028    21954378.239          19.250
        18.750
   -417497.069 3   -325321.830 5  24386788.833    24386799.060           5.750
         7.250
 99  3  2 21 20 15.0010000  0  6G 2G 7G 4G24G 9G 5
  17491746.641 6  13629924.151 6  22833983.794    22833992.806          13.750
        12.000
  13917841.006 6  10845071.550 6  21767261.981    21767269.470          18.500
        18.000
  -8920632.618 6  -6951113.834 6  21188863.200    21188869.981          19.250
        20.750
  -2853811.020 5  -2223735.553 5  23499131.044    23499142.716           8.500
         9.750
  -7637323.913 6  -5941855.631 6  21953792.763    21953800.056          19.250
        18.750
   -441255.684 3   -343834.965 5  24382267.677    24382277.735           6.000
         7.250
 99  3  2 21 20 30.0010000  0  6G 2G 7G 4G24G 9G 5
  17537409.306 6  13665505.409 6  22842673.239    22842682.317          13.500
        12.000
  13963136.903 6  10880367.037 6  21775881.450    21775889.075          18.500
        18.000
  -8927150.348 6  -6956192.562 6  21187622.935    21187629.595          19.250
        21.000
  -2887824.603 5  -2250239.521 5  23492658.481    23492670.110           9.000
         9.750
  -7640231.594 6  -5944121.346 6  21953239.614    21953246.833          19.250
        18.750
   -465012.010 4   -362346.331 5  24377747.138    24377756.888           6.250
         7.250
 99  3  2 21 20 45.0010000  0  6G 2G 7G 4G24G 9G 5
  17583145.187 6  13701143.720 6  22851376.481    22851385.474          13.500
        12.000
  14008472.344 6  10915693.334 6  21784508.560    21784516.110          18.500
        18.000
  -8933527.064 6  -6961161.412 6  21186409.497    21186416.243          19.250
        21.000
  -2921784.950 5  -2276702.004 5  23486195.997    23486207.450           9.250
         9.750
  -7643005.016 6  -5946282.442 6  21952711.841    21952719.071          19.250
        18.750
   -488762.341 4   -380853.046 5  24373227.724    24373237.380           6.250
         6.750
 99  3  2 21 21  0.0010000  0  6G 2G 7G 4G24G 9G 5
  17628944.175 6  13736831.210 5  22860091.981    22860100.841          14.000
        11.750
  14053837.757 6  10951043.001 6  21793141.341    21793149.013          18.250
        18.000
  -8939769.086 6  -6966025.307 6  21185221.638    21185228.259          19.750
        20.750
  -2955701.906 5  -2303130.708 5  23479741.458    23479753.185           8.000
         9.000
  -7645657.383 6  -5948349.210 6  21952207.161    21952214.196          19.500
        19.000
   -512518.990 3   -399364.624 5  24368706.521    24368716.540           6.000
         6.750
 99  3  2 21 21 15.0010000  0  6G 2G 7G 4G24G 9G 5
  17674818.127 6  13772577.098 5  22868821.419    22868830.106          14.000
        11.750
  14099246.385 6  10986426.304 6  21801782.333    21801789.919          17.750
        18.000
  -8945865.326 6  -6970775.629 6  21184061.372    21184068.079          19.500
        20.500
  -2989567.739 5  -2329519.579 5  23473297.114    23473308.528           7.750
         8.750
  -7648178.360 7  -5950313.619 6  21951727.458    21951734.341          20.000
        18.750
   -536275.065 3   -417875.826 5  24364185.208    24364195.610           5.750
         6.750
 99  3  2 21 21 30.0010000  0  6G 2G 7G 4G24G 9G 5
  17720762.624 6  13808377.967 6  22877564.481    22877573.138          14.000
        12.250
  14144691.016 6  11021837.685 6  21810430.146    21810437.739          17.500
        17.750
  -8951822.456 6  -6975417.530 6  21182927.864    21182934.411          19.750
        21.000
  -3023389.072 5  -2355873.746 5  23466861.153    23466872.536           7.750
         8.750
  -7650571.897 7  -5952178.716 6  21951272.052    21951278.825          20.000
        19.250
   -560038.373 4   -436392.638 5  24359664.013    24359673.720           6.500
         7.000
 99  3  2 21 21 45.0010000  0  6G 2G 7G 4G24G 9G 5
  17766792.634 6  13844245.478 5  22886323.810    22886332.427          14.250
        11.750
  14190181.100 6  11057284.488 6  21819086.622    21819094.356          17.750
        17.750
  -8957628.015 6  -6979941.320 6  21181823.044    21181829.720          19.500
        21.000
  -3057152.545 5  -2382182.828 5  23460436.021    23460447.341           7.750
         8.750
  -7652820.859 7  -5953931.142 6  21950844.021    21950850.911          20.000
        19.250
   -583794.910 4   -454904.153 5  24355143.216    24355153.021           6.500
         7.000
 99  3  2 21 22  0.0010000  4  1
0.000                                                       COMMENT
 99  3  2 21 22  0.0010000  0  6G 2G 7G 4G24G 9G 5
  17812907.501 6  13880179.098 5  22895099.310    22895107.813          14.250
        11.750
  14235714.850 6  11092765.306 6  21827751.442    21827759.048          17.750
        17.750
  -8963285.419 6  -6984349.666 6  21180746.544    21180753.185          19.500
        20.750
  -3090859.600 5  -2408447.943 5  23454021.888    23454033.009           8.000
         9.000
  -7654926.394 7  -5955571.812 6  21950443.333    21950450.118          20.500
        19.250
   -607544.924 3   -473410.613 5  24350623.325    24350633.653           6.000
         6.750
 99  3  2 21 22 15.0010000  0  6G 2G 7G 4G24G 9G 5
  17859105.962 6  13916177.861 5  22903890.489    22903899.267          14.250
        11.750
  14281292.021 6  11128279.964 6  21836424.466    21836432.106          18.000
        17.750
  -8968796.497 6  -6988643.991 6  21179697.833    21179704.427          19.250
        21.000
  -3124510.504 5  -2434669.305 5  23447618.036    23447629.403           8.250
         9.000
  -7656888.541 7  -5957100.745 6  21950069.896    21950076.728          20.500
        19.250
   -631289.111 3   -491912.521 5  24346104.981    24346114.974           6.000
         6.500
 99  3  2 21 22 30.0010000  0  6G 2G 7G 4G24G 9G 5
  17905389.019 6  13952242.539 6  22912697.755    22912706.567          14.000
        12.250
  14326915.327 6  11163830.574 6  21845106.388    21845113.954          18.250
        17.750
  -8974156.842 6  -6992820.863 6  21178677.638    21178684.396          19.000
        21.250
  -3158103.907 5  -2460845.879 5  23441225.458    23441236.575           8.250
         9.000
  -7658704.547 7  -5958515.806 6  21949724.349    21949731.255          20.250
        19.500
   -655029.457 3   -510411.427 5  24341587.302    24341597.501           6.000
         6.250
 99  3  2 21 22 45.0010000  4  1
1.401                                                       COMMENT
 99  3  2 21 22 45.0010000  0  6G 2G 7G 4G24G 9G 5
  17951748.395 6  13988366.687 6  22921519.630    22921528.591          13.500
        12.250
  14372579.516 6  11199413.047 6  21853795.981    21853803.407          18.250
        17.750
  -8979369.134 6  -6996882.369 6  21177685.872    21177692.583          19.250
        21.250
  -3191646.298 5  -2486982.691 5  23434842.388    23434853.665           8.000
         9.000
  -7660384.320 7  -5959824.713 6  21949404.778    21949411.708          20.500
        19.250
   -678772.711 4   -528912.621 5  24337068.771    24337079.052           6.250
         6.000
 99  3  2 21 23  0.0010000  0  6G 2G 7G 4G24G 9G 5
  17998176.024 6  14024544.046 6  22930354.567    22930363.470          13.750
        12.750
  14418281.497 6  11235024.966 6  21862492.880    21862500.271          18.000
        17.750
  -8984436.540 6  -7000830.965 6  21176721.536    21176728.165          19.250
        21.250
  -3225143.681 5  -2513084.419 5  23428467.966    23428478.962           8.250
         8.750
  -7661938.154 7  -5961035.480 6  21949109.067    21949115.829          20.500
        19.250
   -702522.875 4   -547419.174 5  24332549.489    24332559.005           6.500
         5.500
 99  3  2 21 23 15.0010000  0  7G 2G 7G 4G24G 9G 5G 8
  18044676.962 6  14060778.501 6  22939203.646    22939212.470          13.750
        12.500
  14464026.980 6  11270670.787 6  21871197.927    21871205.442          18.000
        17.500
  -8989358.741 6  -7004666.427 6  21175784.927    21175791.442          19.250
        21.250
  -3258593.630 5  -2539149.215 5  23422102.560    23422113.548           8.250
         9.000
  -7663361.018 7  -5962144.204 6  21948838.450    21948845.161          20.750
        19.250
   -726275.360 4   -565927.572 5  24328029.833    24328039.087           7.000
         5.750
     -4280.96814     -3336.31915  24216568.435    24216578.825           6.500
         7.500
 99  3  2 21 23 30.0010000  0  7G 2G 7G 4G24G 9G 5G 8
  18091240.098 6  14097061.420 6  22948064.317    22948073.353          13.750
        12.500
  14509804.988 6  11306341.946 6  21879909.286    21879916.630          18.250
        17.500
  -8994147.092 6  -7008397.589 6  21174873.716    21174880.169          19.250
        21.250
  -3292003.555 5  -2565182.816 5  23415744.841    23415755.923           8.250
         9.000
  -7664659.773 7  -5963156.215 6  21948591.224    21948597.974          20.500
        19.250
   -750038.901 4   -584444.563 5  24323507.825    24323517.536           6.750
         6.250
    -36371.252 4    -28341.694 5  24210462.411    24210472.138           7.000
         7.500
 99  3  2 21 23 45.0010000  0  7G 2G 7G 4G24G 9G 5G 8
  18137866.752 6  14133393.837 6  22956937.075    22956946.126          13.750
        12.750
  14555620.258 6  11342042.134 6  21888627.661    21888634.938          18.500
        17.250
  -8998796.500 6  -7012020.487 6  21173988.888    21173995.462          19.500
        21.500
  -3325364.411 5  -2591178.189 5  23409396.091    23409407.470           8.250
         9.250
  -7665829.403 7  -5964067.609 6  21948368.622    21948375.396          20.500
        19.500
   -773806.297 4   -602964.575 5  24318984.958    24318994.993           6.500
         6.500
    -68399.242 4    -53298.555 5  24204368.013    24204377.337           7.000
         7.750
 99  3  2 21 24  0.0010000  0  7G 2G 7G 4G24G 9G 5G 8
  18184556.571 6  14169775.476 6  22965821.872    22965830.837          13.500
        12.750
  14601478.057 6  11377775.461 6  21897354.216    21897361.360          18.250
        17.000
  -9003301.632 6  -7015530.967 6  21173131.630    21173138.200          19.250
        21.500
  -3358672.578 5  -2617132.500 5  23403058.005    23403068.962           8.250
         9.000
  -7666866.243 7  -5964875.537 6  21948171.192    21948178.017          20.500
        19.250
   -797574.674 4   -621485.341 5  24314461.583    24314471.579           6.500
         6.500
   -100364.487 4    -78206.509 5  24198284.817    24198294.372           6.750
         7.750
 99  3  2 21 24 15.0010000  0  7G 2G 7G 4G24G 9G 5G 8
  18231309.993 6  14206206.670 6  22974718.888    22974727.849          13.500
        12.750
  14647383.702 6  11413546.082 6  21906089.739    21906096.978          18.500
        17.000
  -9007658.625 6  -7018926.006 6  21172302.646    21172309.122          19.250
        21.500
  -3391924.008 5  -2643042.592 5  23396730.192    23396741.263           8.500
         9.250
  -7667768.734 7  -5965578.767 6  21947999.505    21948006.372          20.500
        19.500
   -821344.600 3   -640007.299 5  24309937.935    24309948.388           6.000
         6.750
   -132268.292 4   -103066.561 5  24192213.646    24192223.450           6.500
         8.000
 99  3  2 21 24 30.0010000  0  7G 2G 7G 4G24G 9G 5G 8
  18278115.977 6  14242678.817 6  22983625.747    22983634.739          13.500
        12.750
  14693327.219 6  11449346.205 6  21914832.450    21914839.716          18.500
        17.000
  -9011875.745 6  -7022212.053 6  21171500.067    21171506.540          19.500
        21.500
  -3425127.372 5  -2668915.253 5  23390411.974    23390422.782           8.500
         9.250
  -7668547.392 7  -5966185.509 6  21947851.317    21947858.196          20.500
        19.750
   -845125.350 3   -658537.687 5  24305412.888    24305423.036           6.000
         6.750
   -164121.773 4   -127887.413 5  24186152.106    24186161.927           6.250
         8.250
 99  3  2 21 24 45.0010000  0  7G 2G 7G 4G24G 9G 5G 8
  18324998.295 6  14279210.452 6  22992547.146    22992556.106          13.250
        12.750
  14739327.548 6  11485190.598 6  21923586.067    21923593.353          18.750
        17.000
  -9015933.382 6  -7025373.834 6  21170727.950    21170734.442          19.500
        21.500
  -3458262.903 5  -2694735.059 5  23384106.356    23384117.235           8.750
         9.500
  -7669184.522 7  -5966681.973 6  21947730.091    21947736.974          20.250
        19.750
   -868891.591 3   -677056.800 5  24300890.208    24300900.450           6.000
         6.750
   -195904.310 4   -152652.994 5  24180104.005    24180113.720           6.250
         8.000
 99  3  2 21 25  0.0010000  0  7G 2G 7G 4G24G 9G 5G 8
  18371948.385 6  14315794.897 6  23001481.536    23001490.399          13.250
        12.500
  14785375.227 6  11521071.887 6  21932348.669    21932355.806          18.500
        16.750
  -9019845.102 6  -7028421.910 6  21169983.544    21169990.142          19.500
        21.500
  -3491337.722 5  -2720507.526 5  23377812.435    23377823.173           8.750
         9.500
  -7669691.052 7  -5967076.673 6  21947633.692    21947640.563          20.250
        19.500
   -892650.253 3   -695569.978 5  24296368.989    24296379.423           5.500
         7.500
   -227626.018 4   -177371.159 5  24174067.567    24174077.067           6.250
         8.000
 99  3  2 21 25 15.0010000  0  7G 2G 7G 4G24G 9G 5G 8
  18418972.277 6  14352436.845 6  23010429.724    23010438.802          13.000
        12.500
  14831474.923 6  11556993.717 6  21941121.130    21941128.313          18.500
        16.750
  -9023609.835 6  -7031355.453 6  21169267.200    21169273.642          19.750
        21.750
  -3524346.490 5  -2746228.547 5  23371531.013    23371541.677           9.250
         9.500
  -7670057.533 7  -5967362.237 6  21947563.989    21947570.774          20.250
        19.250
   -916396.300 3   -714073.344 5  24291850.083    24291860.583           5.750
         7.500
   -259282.690 4   -202038.664 5  24168043.060    24168052.884           6.250
         7.750
 99  3  2 21 25 30.0010000  0  7G 2G 7G 4G24G 9G 5G 8
  18466068.074 6  14389134.828 6  23019391.880    23019400.786          13.000
        12.250
  14877622.676 6  11592952.975 6  21949902.716    21949910.005          18.250
        16.500
  -9027228.597 6  -7034175.248 6  21168578.497    21168585.024          19.750
        22.000
  -3557289.607 5  -2771898.408 5  23365262.091    23365272.810           9.250
         9.500
  -7670281.829 7  -5967537.010 6  21947521.325    21947528.087          20.500
        19.250
   -940133.523 3   -732569.820 5  24287333.435    24287343.282           5.750
         7.500
   -290872.975 3   -226654.436 5  24162031.458    24162041.267           5.750
         7.250
 99  3  2 21 25 45.0010000  0  7G 2G 7G 4G24G 9G 5G 8
  18513229.977 6  14425884.317 6  23028366.427    23028375.431          12.750
        12.000
  14923813.072 6  11628945.476 6  21958692.528    21958699.864          18.500
        16.750
  -9030703.452 6  -7036882.917 6  21167917.067    21167923.610          19.750
        21.750
  -3590171.048 5  -2797520.223 5  23359004.755    23359015.267           9.250
         9.750
  -7670369.544 7  -5967605.353 6  21947504.521    21947511.290          20.250
        19.250
   -963869.401 3   -751065.255 5  24282816.474    24282826.720           6.000
         7.750
   -322401.998 3   -251222.467 5  24156031.966    24156041.489           5.750
         7.000
 99  3  2 21 26  0.0010000  0  7G 2G 7G 4G24G 9G 5G 8
  18560462.559 6  14462688.886 6  23037354.349    23037363.470          12.750
        12.000
  14970049.500 6  11664973.832 6  21967491.106    21967498.392          18.250
        16.500
  -9034029.066 7  -7039474.288 6  21167284.302    21167290.739          20.000
        21.750
  -3622990.963 5  -2823094.086 5  23352759.364    23352769.989           9.500
         9.500
  -7670318.708 7  -5967565.739 6  21947514.286    21947520.958          20.750
        18.750
   -987600.112 3   -769556.664 5  24278300.552    24278310.587           6.000
         7.750
   -353865.641 3   -275739.545 5  24150044.692    24150054.142           5.750
         6.750
 99  3  2 21 26 15.0010000  0  7G 2G 7G 4G24G 9G 5G 8
  18607765.413 6  14499548.211 5  23046356.028    23046364.993          12.750
        11.750
  15016325.866 6  11701033.321 6  21976297.067    21976304.419          18.000
        16.500
  -9037212.483 7  -7041954.860 6  21166678.614    21166685.122          20.000
        21.750
  -3655754.705 5  -2848624.179 5  23346524.513    23346535.247           9.500
         9.750
  -7670134.176 7  -5967421.936 6  21947549.341    21947556.083          20.000
        19.250
  -1011329.690 4   -788047.174 5  24273784.903    24273794.563           6.500
         7.750
   -385263.664 3   -300205.523 5  24144070.138    24144079.435           6.000
         6.750
 99  3  2 21 26 30.0010000  0  7G 2G 7G 4G24G 9G 5G 8
  18655145.412 6  14536467.651 5  23055372.114    23055381.134          12.750
        11.750
  15062643.910 6  11737125.281 6  21985111.060    21985118.310          18.500
        16.500
  -9040252.803 6  -7044323.927 6  21166099.911    21166106.403          19.750
        21.750
  -3688460.836 5  -2874109.386 5  23340300.716    23340311.298           9.500
         9.750
  -7669816.793 7  -5967174.619 6  21947609.661    21947616.481          20.000
        19.250
  -1035052.098 3   -806532.127 5  24269270.716    24269280.747           6.000
         7.750
   -416590.360 4   -324615.905 5  24138108.419    24138117.560           6.250
         6.500
 99  3  2 21 26 45.0010000  0  7G 2G 7G 4G24G 9G 5G 8
  18702599.479 6  14573444.798 6  23064402.372    23064411.388          12.750
        12.000
  15108996.265 6  11773243.981 6  21993931.833    21993939.153          18.500
        16.750
  -9043155.703 6  -7046585.909 6  21165547.606    21165553.938          19.750
        21.750
  -3721118.587 5  -2899556.888 5  23334086.052    23334096.677           9.500
         9.750
  -7669370.578 7  -5966826.922 6  21947694.567    21947701.321          20.000
        18.750
  -1058769.080 3   -825012.839 5  24264757.653    24264767.235           6.000
         7.500
   -447848.038 3   -348972.521 5  24132160.388    24132169.794           6.000
         6.250
 99  3  2 21 27  0.0010000  0  7G 2G 7G 4G24G 9G 5G 8
  18750124.559 6  14610477.291 6  23073446.122    23073455.138          13.000
        12.000
  15155381.930 6  11809388.637 6  22002758.763    22002766.028          18.750
        16.750
  -9045925.567 7  -7048744.231 6  21165020.614    21165027.001          20.000
        21.750
  -3753729.680 5  -2924968.049 5  23327880.294    23327890.798           9.750
         9.750
  -7668795.586 6  -5966378.875 6  21947803.919    21947810.771          19.750
        18.750
  -1082482.531 4   -843490.799 5  24260245.341    24260254.614           6.500
         7.500
   -479035.815 3   -373274.653 5  24126225.489    24126234.435           5.750
         6.250
 99  3  2 21 27 15.0010000  0  7G 2G 7G 4G24G 9G 5G 8
  18797718.110 6  14647563.113 5  23082502.919    23082511.888          13.000
        11.500
  15201803.731 6  11845561.438 6  22011592.677    22011599.958          18.750
        16.750
  -9048559.266 7  -7050796.464 6  21164519.396    21164525.759          20.000
        21.500
  -3786294.751 5  -2950343.350 5  23321683.411    23321693.985           9.750
        10.000
  -7668087.566 7  -5965827.183 6  21947938.653    21947945.599          20.000
        19.000
  -1106192.034 4   -861965.688 5  24255732.989    24255743.446           6.250
         8.250
   -510153.610 3   -397522.266 5  24120303.958    24120312.966           5.750
         6.000
 99  3  2 21 27 30.0010000  0  7G 2G 7G 4G24G 9G 5G 8
  18845367.518 6  14684692.481 6  23091570.263    23091579.415          13.000
        12.000
  15248245.822 6  11881750.049 6  22020430.044    22020437.356          18.250
        16.250
  -9051065.282 7  -7052749.185 6  21164042.419    21164048.899          20.000
        21.750
  -3818829.215 5  -2975694.792 5  23315492.200    23315502.720          10.000
        10.000
  -7667257.664 6  -5965180.493 6  21948096.614    21948103.333          19.750
        18.500
  -1129910.158 4   -880447.302 5  24251219.606    24251229.517           6.500
         7.500
   -541214.166 3   -421725.254 5  24114393.263    24114402.685           5.750
         6.250
 99  3  2 21 27 45.0010000  0  7G 2G 7G 4G24G 9G 5G 8
  18893077.780 6  14721869.267 5  23100649.372    23100658.509          12.500
        11.750
  15294710.986 6  11917956.652 6  22029272.208    22029279.618          18.500
        16.750
  -9053436.595 7  -7054596.956 6  21163591.138    21163597.606          20.000
        21.500
  -3851328.470 5  -3001018.772 5  23309307.763    23309318.337          10.500
        10.000
  -7666304.392 6  -5964437.692 6  21948277.997    21948285.048          19.500
        19.000
  -1153631.885 4   -898931.732 5  24246705.231    24246715.786           6.500
         8.000
   -572212.162 4   -445879.516 5  24108494.997    24108503.751           6.500
         6.250
 99  3  2 21 28  0.0010000  0  7G 2G 7G 4G24G 9G 5G 8
  18940860.527 6  14759102.530 5  23109742.185    23109751.099          12.250
        11.750
  15341209.786 6  11954189.465 6  22038120.646    22038128.165          18.500
        16.750
  -9055664.022 7  -7056332.593 6  21163167.239    21163173.532          20.000
        21.500
  -3883781.815 5  -3026307.000 5  23303131.942    23303142.521           9.750
        10.250
  -7665217.963 6  -5963591.114 6  21948484.763    21948491.606          19.500
        19.250
  -1177341.641 4   -917406.789 5  24242193.614    24242203.556           6.500
         8.750
   -603138.227 5   -469977.735 5  24102610.052    24102618.923           7.500
         6.750
 99  3  2 21 28 15.0010000  0  7G 2G 7G 4G24G 9G 5G 8
  18988706.703 5  14796385.220 5  23118846.896    23118856.146          11.750
        11.500
  15387731.016 6  11990439.757 6  22046973.380    22046980.825          18.500
        16.750
  -9057758.132 7  -7057964.353 6  21162768.731    21162775.259          20.000
        21.500
  -3916197.070 5  -3051565.565 5  23296963.544    23296974.185          10.500
        10.500
  -7664006.767 6  -5962647.335 6  21948715.200    21948722.114          19.250
        18.500
  -1201045.639 4   -935877.405 5  24237682.700    24237692.856           6.750
         8.000
   -633999.433 4   -494025.409 5  24096737.216    24096746.044           6.750
         6.000
 99  3  2 21 28 30.0010000  0  7G 2G 7G 4G24G 9G 5G 8
  19036618.150 6  14833718.772 5  23127964.247    23127973.310          12.000
        11.250
  15434278.326 6  12026710.368 6  22055831.099    22055838.497          18.500
        16.500
  -9059715.814 7  -7059489.810 6  21162396.255    21162402.544          20.000
        21.750
  -3948567.333 5  -3076789.055 5  23290803.669    23290814.052          10.500
        10.500
  -7662668.715 6  -5961604.691 6  21948969.755    21948976.630          19.500
        18.500
  -1224739.795 4   -954340.355 5  24233173.950    24233184.294           7.000
         8.250
   -664796.161 4   -518022.816 5  24090876.716    24090885.446           6.500
         6.000
 99  3  2 21 28 45.0010000  0  7G 2G 7G 4G24G 9G 5G 8
  19084590.310 6  14871099.627 5  23137092.888    23137102.118          12.000
        11.250
  15480849.502 6  12062999.574 6  22064693.208    22064700.552          18.000
        16.250
  -9061533.456 7  -7060906.138 6  21162050.380    21162056.802          20.250
        21.750
  -3980893.200 5  -3101977.957 5  23284652.044    23284662.677          10.500
        10.500
  -7661200.919 6  -5960460.944 6  21949249.091    21949255.876          19.500
        18.250
  -1248425.924 4   -972797.018 5  24228666.333    24228676.739           6.750
         8.000
   -695532.248 4   -541972.984 5  24085027.591    24085036.044           6.500
         5.500
 99  3  2 21 29  0.0010000  0  7G 2G 7G 4G24G 9G 5G 8
  19132612.329 6  14908519.345 5  23146231.294    23146240.353          12.000
        11.250
  15527437.694 6  12099302.037 6  22073558.497    22073565.880          18.250
        16.250
  -9063218.861 7  -7062219.424 6  21161729.653    21161735.989          20.000
        21.500
  -4013177.978 5  -3127134.829 5  23278508.372    23278518.942          10.250
        10.250
  -7659608.381 6  -5959220.013 6  21949552.247    21949559.122          19.750
        18.750
  -1272113.460 5   -991254.812 5  24224159.739    24224169.188           8.000
         8.000
   -726214.164 4   -565880.911 5  24079189.161    24079197.509           6.750
         5.500
 99  3  2 21 29 15.0010000  0  7G 2G 7G 4G24G 9G 5G 8
  19180686.924 5  14945980.024 5  23155379.497    23155388.536          11.750
        11.500
  15574045.521 6  12135619.806 6  22082427.864    22082435.153          18.250
        16.500
  -9064766.710 7  -7063425.525 6  21161435.044    21161441.392          20.250
        21.750
  -4045415.126 5  -3152254.595 5  23272373.724    23272384.130          10.500
        11.000
  -7657889.398 7  -5957880.530 6  21949879.403    21949886.048          20.000
        18.500
  -1295801.105 5  -1009712.669 5  24219651.778    24219661.399           7.750
         7.500
   -756838.509 5   -589744.040 5  24073361.864    24073369.888           7.750
         5.750
 99  3  2 21 29 30.0010000  0  7G 2G 7G 4G24G 9G 5G 8
  19228825.088 5  14983490.236 5  23164540.106    23164549.138          11.750
        11.000
  15620677.661 6  12171956.519 6  22091301.739    22091308.978          18.750
        16.500
  -9066166.003 7  -7064515.870 6  21161168.692    21161175.056          20.000
        21.250
  -4077594.979 5  -3177329.722 5  23266250.083    23266260.587          10.750
        11.250
  -7656037.617 6  -5956437.584 6  21950231.622    21950238.481          19.750
        18.500
  -1319482.649 5  -1028165.780 5  24215145.216    24215154.938           7.500
         7.750
   -787394.277 5   -613553.705 5  24067547.185    24067555.134           7.750
         6.000
 99  3  2 21 29 45.0010000  0  7G 2G 7G 4G24G 9G 5G 8
  19277030.710 5  15021053.013 5  23173713.435    23173722.571          11.750
        11.000
  15667338.497 6  12208315.597 6  22100180.974    22100188.204          18.250
        16.500
  -9067415.966 7  -7065489.851 6  21160930.833    21160937.177          20.000
        21.500
  -4109710.700 5  -3202354.865 5  23260138.708    23260149.083          10.500
        11.000
  -7654050.507 7  -5954889.190 6  21950609.692    21950616.368          20.000
        18.000
  -1343155.979 5  -1046612.507 5  24210640.442    24210649.845           7.500
         7.750
   -817872.675 5   -637303.075 5  24061747.583    24061755.853           8.000
         6.250
 99  3  2 21 30  0.0010000  0  7G 2G 7G 4G24G 9G 5G 8
  19325292.937 6  15058659.897 5  23182897.622    23182906.388          12.750
        10.000
  15714018.323 6  12244689.466 6  22109063.802    22109071.134          18.250
        16.250
  -9068531.200 7  -7066358.855 6  21160718.606    21160724.938          20.000
        21.750
  -4141770.816 5  -3227336.684 5  23254037.731    23254048.048          10.500
        10.500
  -7651940.358 6  -5953244.913 6  21951011.099    21951017.896          19.750
        18.250
  -1366830.893 4  -1065060.446 5  24206134.685    24206144.743           7.000
         7.500
   -848281.426 5   -660998.158 5  24055960.638    24055969.153           7.500
         5.750
 99  3  2 21 30 15.0010000  0  7G 2G 7G 4G24G 9G 5G 8
  19373614.588 6  15096313.098 5  23192092.935    23192101.735          12.500
        10.250
  15760725.209 6  12281084.424 6  22117951.989    22117959.165          18.250
        16.000
  -9069507.528 6  -7067119.611 6  21160532.896    21160539.224          19.750
        21.750
  -4173769.934 5  -3252270.971 5  23247948.505    23247958.970          10.750
        11.000
  -7649700.692 7  -5951499.697 6  21951437.435    21951444.146          20.000
        18.500
  -1390503.072 4  -1083506.273 5  24201630.177    24201639.915           7.250
         7.750
   -878612.713 5   -684632.900 5  24050188.919    24050196.892           8.000
         5.750
 99  3  2 21 30 30.0020000  0  7G 2G 7G 4G24G 9G 5G 8
  19421996.053 6  15134012.894 5  23201299.666    23201308.611          12.500
        10.250
  15807460.977 6  12317501.883 6  22126845.424    22126852.717          18.000
        16.000
  -9070346.341 6  -7067773.225 6  21160373.260    21160379.654          19.500
        21.500
  -4205711.900 5  -3277160.731 5  23241869.885    23241880.314          10.750
        11.250
  -7647333.570 7  -5949655.198 6  21951888.096    21951894.611          20.250
        18.250
  -1414180.004 5  -1101955.746 5  24197124.861    24197134.510           7.500
         7.750
   -908867.913 5   -708208.348 5  24044431.455    24044439.654           7.750
         6.000
 99  3  2 21 30 45.0020000  4  1
1.401                                                       COMMENT
